[[{"header":{"parameterUnit":"m.s-1","parameterCategory":1,"la1":30.2992,"la2":30.254,"lo1":-89.0895,"lo2":-89.0443,"dy":0.0025,"dx":0.0025,"nx":19,"ny":19,"refTime":"2026-04-03T09:00:00:Z","depth":0,"parameterNumber":2,"parameterNumberName":"U-component_of_WINDS"},"data":[0,0,0,-4.9848,-4.9851,-5.0011,-5.0011,-5.0217,-5.0219,0,0,0,0,0,0,0,0,0,0,0,-4.9801,-4.9802,-4.9847,-4.9851,-5.0011,-5.0011,-5.0216,-5.0219,0,0,0,0,0,0,0,0,0,0,0,-4.98,-4.9802,-4.9804,-4.9852,-5.001,-5.0011,-5.0216,-5.0095,0,0,0,0,0,0,0,0,0,0,-4.994,-4.9897,-4.9801,-4.9804,-4.9853,-5.001,-5.0011,-5.0089,-5.0103,-5.0145,0,-5.0183,0,-5.0204,-5.0232,-5.0233,0,0,0,-4.9851,-4.9886,-4.9929,-4.9804,-4.9854,-5.001,-4.9939,-5.0097,-5.0112,-5.0163,-5.0186,-5.0193,-5.0207,-5.0234,-5.0235,-5.0481,-5.0482,0,0,-4.9842,-4.9829,-4.9918,-4.9938,-4.9914,-4.9933,-4.9944,-5.0106,-5.013,-5.0186,-5.0198,-5.0211,-5.0235,-5.0237,-5.048,-5.0481,0,0,0,-4.9817,-4.9823,-4.9862,-4.993,-4.9959,-4.9938,-4.995,-5.0123,-5.0136,-5.02,-5.0213,-5.0236,-5.0239,-5.0479,-5.0481,-5.0525,0,0,0,-4.9812,-4.9809,-4.9858,-4.9852,-4.9956,-5.0043,-4.9963,-5.0125,-5.0144,-5.0212,-5.0236,-5.0241,-5.0477,-5.048,-5.0521,-5.0547,0,0,0,-4.979,-4.9806,-4.983,-4.9851,-4.992,-5.004,-5.0063,-5.0129,-5.0152,-5.0233,-5.0241,-5.0477,-5.0479,-5.0517,-5.0541,-5.0607,0,0,0,-4.9763,-4.9867,-4.983,-4.9951,-4.9918,-5.0067,-5.0062,-5.0174,-5.025,-5.0237,-5.0478,-5.048,-5.0516,-5.0538,-5.0603,-5.0658,-5.068,0,0,-4.9886,-4.9881,-4.9953,-4.9925,-5.0078,-5.0044,-5.0204,-5.0284,-5.0304,-5.0421,-5.0427,-5.0522,-5.0541,-5.0606,-5.0816,-5.0833,0,0,0,-4.9988,-5.0039,-5.0083,-5.0154,-5.022,-5.0277,-5.0336,-5.0366,-5.0466,-5.0362,-5.0566,-5.0577,-5.0616,-5.0643,-5.0658,-5.0691,-5.0493,-5.0493,-5.0492,-5.0142,-5.0162,-5.0283,-5.0323,-5.0394,-5.0454,-5.0512,-5.0564,-5.0563,-5.0612,-5.0645,-5.077,-5.0801,-5.0812,-5.0847,-5.0678,-5.0679,-5.0679,-5.0679,-5.0322,-5.0397,-5.0397,-5.0514,-5.0535,-5.0634,-5.0698,-5.0695,-5.079,-5.0746,-5.0781,-5.0728,-5.0831,-5.0862,-5.0683,-5.0682,-5.0681,-5.0681,-5.0681,-5.0422,-5.0461,-5.0498,-5.0605,-5.0686,-5.0725,-5.0816,-5.0833,-5.085,-5.0885,-5.0922,-5.0921,-5.0921,-5.0902,-5.0903,-5.0903,-5.0904,-5.0904,-5.0904,-5.051,-5.055,-5.0625,-5.0705,-5.0754,-5.0821,-5.0886,-5.0935,-5.0993,-5.0998,-5.0999,-5.0993,-5.0838,-5.0797,-5.0911,-5.091,-5.0909,-5.0908,-5.0908,-5.0679,-5.0644,-5.0759,-5.0809,-5.0905,-5.0984,-5.1007,-5.1106,-5.1149,-5.1194,-5.1183,-5.1067,-5.1061,-5.105,-5.1015,-5.1179,-5.1179,-5.1179,-5.1179,-5.0761,-5.0762,-5.0884,-5.0962,-5.1041,-5.1074,-5.1204,-5.1257,-5.1306,-5.1334,-5.1314,-5.1272,-5.1259,-5.1261,-5.1245,-5.1213,-5.1424,-5.1424,-5.1424,-5.0866,-5.0875,-5.0981,-5.1029,-5.1107,-5.1173,-5.1297,-5.1387,-5.1435,-5.1434,-5.1356,-5.1346,-5.1278,-5.1255,-5.1247,-5.1221,-5.1163,0,0]},{"header":{"parameterUnit":"m.s-1","parameterCategory":1,"la1":30.2992,"la2":30.254,"lo1":-89.0895,"lo2":-89.0443,"dy":0.0025,"dx":0.0025,"nx":19,"ny":19,"refTime":"2026-04-03T09:00:00:Z","depth":0,"parameterNumber":3,"parameterNumberName":"V-component_of_WINDS"},"data":[0,0,0,3.9456,3.946,3.9619,3.962,3.9815,3.9816,0,0,0,0,0,0,0,0,0,0,0,3.9402,3.9403,3.9456,3.946,3.9619,3.962,3.9814,3.9816,0,0,0,0,0,0,0,0,0,0,0,3.9401,3.9403,3.9404,3.946,3.9619,3.962,3.9814,3.9697,0,0,0,0,0,0,0,0,0,0,3.9544,3.9486,3.9402,3.9404,3.9461,3.9619,3.962,3.9692,3.9705,3.9738,0,3.9765,0,3.9794,3.9829,3.9829,0,0,0,3.9465,3.9476,3.9525,3.9404,3.9463,3.9619,3.9549,3.9699,3.9713,3.9755,3.9767,3.9775,3.9797,3.983,3.9831,4.0004,4.0004,0,0,3.9457,3.9427,3.9515,3.9534,3.9507,3.9544,3.9554,3.9708,3.972,3.9768,3.978,3.98,3.9831,3.9832,4.0003,4.0004,0,0,0,3.9428,3.942,3.9466,3.9526,3.9555,3.9548,3.956,3.9713,3.9731,3.9782,3.9802,3.9832,3.9834,4.0003,4.0004,4.0002,0,0,0,3.9423,3.9403,3.9462,3.9446,3.9552,3.9636,3.9561,3.972,3.9738,3.9801,3.9832,3.9836,4.0002,4.0003,4.0001,4.0005,0,0,0,3.9394,3.94,3.9421,3.9444,3.9511,3.9634,3.9661,3.9725,3.9751,3.9829,3.9837,4.0002,4.0003,3.9999,4.0004,4.0043,0,0,0,3.9355,3.9416,3.942,3.9497,3.951,3.9631,3.966,3.9752,3.982,3.9833,4.0002,4.0004,3.9999,4.0003,4.0042,4.007,4.0079,0,0,3.9415,3.9422,3.947,3.9478,3.9592,3.9609,3.9724,3.9814,3.9849,3.9951,3.9955,4.0001,4.0004,4.0043,4.0141,4.0148,0,0,0,3.9479,3.9513,3.9549,3.9612,3.9683,3.9744,3.982,3.9855,3.9943,3.9895,4.0027,4.0029,4.0053,4.0069,4.0075,4.0098,4.0009,4.0009,4.0009,3.952,3.9563,3.9645,3.9708,3.9769,3.9848,3.9902,3.9961,3.9985,4.0016,4.0046,4.0101,4.0117,4.0122,4.0146,4.0065,4.0065,4.0065,4.0065,3.9613,3.9668,3.9701,3.9792,3.9838,3.9916,3.9996,4.0011,4.0091,4.0081,4.0104,4.0089,4.0128,4.0151,4.0066,4.0066,4.0066,4.0065,4.0065,3.9645,3.9679,3.972,3.9817,3.9887,3.9949,4.0026,4.0064,4.0101,4.0125,4.0162,4.0162,4.0167,4.014,4.014,4.014,4.014,4.014,4.0141,3.9661,3.9708,3.9766,3.9848,3.9895,3.9962,4.0045,4.0093,4.0156,4.0178,4.0179,4.0201,4.0124,4.0104,4.0144,4.0143,4.0143,4.0142,4.0142,3.9738,3.9728,3.9818,3.9865,3.9967,4.0036,4.0085,4.018,4.0225,4.0262,4.0281,4.0218,4.0227,4.0223,4.0206,4.027,4.027,4.027,4.027,3.9765,3.9774,3.9877,3.995,4.0027,4.0081,4.0185,4.0251,4.0318,4.0349,4.0346,4.0328,4.0322,4.0335,4.0329,4.0314,4.0404,4.0404,4.0404,3.9816,3.9835,3.9914,3.9978,4.0062,4.0133,4.0232,4.0316,4.039,4.041,4.0375,4.037,4.0341,4.0329,4.0346,4.0335,4.0308,0,0]}]]